#timestamp,LO_Frequency,Hit 
1500292815.5,286046107.8,N
1500292835.3,286046107.7,N
1500292855.2,286046108.2,N
1500292875.0,286046107.5,N
1500292875.9,286046107.5,N
1500292895.8,286046107.6,N
1500292915.6,286046109.6,N
1500292935.4,286046111.6,N
1500292955.3,286046111.2,N
1500292975.1,286046109.3,N
1500292995.8,286046108.5,N
1500293015.7,286046111.6,N
1500293035.5,286046110.0,N
1500293055.4,286046106.9,N
1500293075.2,286046106.9,N
1500293095.0,286046110.0,N
1500293095.9,286046110.0,N
1500293115.8,286046109.7,N
1500293135.6,286046108.6,N
1500293155.5,286046109.5,N
1500293175.3,286046109.7,N
1500293195.1,286046109.5,N
1500293215.9,286046111.4,N
1500293235.7,286046109.3,N
1500293255.5,286046109.7,N
1500293275.4,286046109.4,N
1500293295.2,286046109.2,N
1500293315.1,286046108.5,N
1500293316.0,286046108.5,N
1500293335.8,286046109.0,N
1500293355.6,286046109.4,N
1500293375.5,286046109.2,N
1500293395.3,286046109.7,N
1500293415.2,286046108.5,N
1500293435.9,286046109.2,N
1500293455.7,286046106.9,N
1500293475.6,286046109.4,N
1500293495.4,286046109.2,N
1500293515.2,286046110.2,N
1500293535.1,286046110.8,N
1500293536.0,286046110.8,N
1500293555.8,286046111.4,N
1500293575.7,286046108.5,N
1500293595.5,286046108.5,N
1500293615.3,286046108.9,N
1500293635.2,286046115.9,N
1500293655.0,286046109.3,N
1500293655.9,286046109.3,N
1500293675.8,286046108.5,N
1500293695.6,286046111.6,N
1500293715.4,286046111.5,N
1500293735.3,286046110.8,N
1500293755.1,286046110.4,N
1500293775.8,286046110.9,N
1500293795.7,286046110.8,N
1500293815.5,286046111.3,N
1500293835.4,286046111.0,N
1500293855.2,286046110.8,N
1500293875.0,286046110.8,N
1500293875.9,286046110.8,N
1500293895.8,286046110.8,N
1500293915.6,286046111.4,N
1500293935.5,286046108.9,N
1500293955.3,286046108.6,N
1500293975.1,286046111.6,N
1500293995.9,286046111.2,N
1500294015.7,286046111.6,N
1500294035.6,286046111.1,N
1500294055.4,286046111.6,N
1500294075.2,286046111.3,N
1500294095.1,286046110.6,N
1500294096.0,286046110.6,N
1500294115.8,286046113.1,N
1500294135.6,286046110.2,N
1500294155.5,286046110.2,N
1500294175.3,286046110.4,N
1500294195.2,286046110.3,N
1500294215.9,286046110.9,N
1500294235.7,286046110.8,N
1500294255.6,286046110.6,N
1500294275.4,286046111.6,N
1500294295.2,286046110.3,N
1500294315.1,286046110.9,N
1500294316.0,286046110.9,N
1500294335.8,286046112.3,N
1500294355.7,286046112.9,N
1500294375.5,286046112.6,N
1500294395.3,286046112.7,N
1500294415.2,286046110.2,N
1500294435.0,286046112.6,N
1500294435.9,286046112.6,N
1500294455.8,286046111.9,N
1500294475.6,286046112.2,N
1500294495.4,286046114.7,N
1500294515.3,286046114.8,N
1500294535.1,286046113.2,N
1500294555.8,286046110.2,N
1500294575.7,286046113.1,N
1500294595.5,286046110.7,N
1500294615.4,286046111.3,N
1500294635.2,286046110.6,N
1500294655.0,286046110.8,N
1500294655.9,286046110.8,N
1500294675.8,286046110.9,N
1500294695.6,286046111.0,N
1500294715.5,286046111.4,N
1500294735.3,286046111.5,N
1500294755.1,286046111.4,N
1500294775.9,286046111.6,N
1500294795.7,286046111.6,N
1500294815.5,286046108.5,N
1500294835.4,286046108.6,N
1500294855.2,286046111.6,N
1500294875.1,286046108.5,N
1500294876.0,286046108.5,N
1500294895.8,286046108.7,N
1500294915.6,286046111.5,N
1500294935.5,286046108.7,N
1500294955.3,286046108.9,N
1500294975.1,286046108.9,N
1500294995.9,286046108.6,N
1500295015.7,286046108.9,N
1500295035.6,286046108.6,N
1500295055.4,286046108.9,N
1500295075.2,286046108.9,N
1500295095.1,286046111.5,N
1500295096.0,286046111.5,N
1500295115.8,286046110.9,N
1500295135.6,286046111.6,N
1500295155.5,286046108.9,N
1500295175.3,286046110.9,N
1500295195.2,286046108.8,N
1500295215.9,286046109.2,N
1500295235.7,286046110.9,N
1500295255.6,286046110.6,N
1500295275.4,286046110.8,N
1500295295.2,286046112.6,N
1500295315.1,286046111.4,N
1500295316.0,286046111.4,N
1500295335.8,286046112.7,N
1500295355.7,286046114.1,N
1500295375.5,286046114.5,N
1500295395.3,286046112.2,N
1500295415.2,286046114.8,N
1500295435.0,286046111.9,N
1500295435.9,286046111.9,N
1500295455.8,286046114.8,N
1500295475.6,286046112.2,N
1500295495.4,286046112.9,N
1500295515.3,286046112.9,N
1500295535.1,286046112.0,N
1500295555.8,286046112.0,N
1500295575.7,286046112.9,N
1500295595.5,286046112.2,N
1500295615.4,286046113.2,N
1500295635.2,286046112.4,N
1500295655.0,286046112.3,N
1500295655.9,286046112.3,N
1500295675.8,286046112.4,N
1500295695.6,286046112.3,N
1500295715.5,286046112.8,N
1500295735.3,286046112.5,N
1500295755.1,286046112.4,N
1500295775.9,286046112.0,N
1500295795.7,286046112.0,N
1500295815.5,286046112.9,N
1500295835.4,286046110.5,N
1500295855.2,286046110.3,N
1500295875.1,286046113.1,N
1500295876.0,286046113.1,N
1500295895.8,286046113.0,N
1500295915.6,286046110.2,N
1500295935.5,286046110.8,N
1500295955.3,286046112.7,N
1500295975.2,286046113.0,N
1500295995.9,286046110.3,N
1500296015.7,286046113.1,N
1500296035.6,286046110.9,N
1500296055.4,286046110.4,N
1500296075.2,286046111.1,N
1500296095.1,286046111.2,N
1500296096.0,286046111.2,N
1500296115.8,286046111.2,N
1500296135.7,286046111.0,N
1500296155.5,286046109.3,N
1500296175.3,286046109.0,N
1500296195.2,286046109.8,N
1500296215.0,286046106.9,N
1500296215.9,286046106.9,N
1500296235.8,286046109.9,N
1500296255.6,286046109.6,N
1500296275.4,286046110.0,N
1500296295.3,286046109.4,N
1500296315.1,286046109.6,N
1500296335.9,286046107.4,N
1500296355.7,286046109.6,N
1500296375.5,286046107.7,N
1500296395.4,286046108.0,N
